Location: Asheville, NC
(35.6000°N, 82.5500°W)
Time: 11:50:11

Vanguard 1 Rocket - Pass Details

Date: 14 December 2017
Orbit: 655 x 4222 km, 34.3° (Epoch: 19 March)

Event Time Altitude Azimuth Distance (km) Brightness Sun altitude
Rises 23:27:10 0° 286° (WNW) 6,669 12.0 -72.4°
Reaches altitude 10° 23:31:10 10° 281° (W) 6,040 11.7 -73.0°
Enters shadow 23:38:01 28° 268° (W) 5,216 11.1 -74.0°
Maximum altitude 23:50:54 49° 215° (SW) 4,789 - -75.6°
Drops below altitude 10° 00:14:51 10° 149° (SSE) 7,099 - -77.5°
Exits shadow 00:19:11 - 144° (SE) 7,700 12.0 -77.6°
Sets 00:20:13 0° 143° (SE) 7,845 12.1 -77.6°
